Location: Agendoh
(31.0664°N, 8.9343°W)
Time: 08:25:50
(UTC+00:00)

Cosmos 1151 Rocket - Pass Details

Date: 10 July 2022
Orbit: 592 x 614 km, 82.5° (Epoch: 07 August)

Event Time Altitude Azimuth Distance (km) Brightness Sun altitude
Rises 01:45:39 0° 357° (N) 2,885 7.4 -34.5°
Reaches altitude 10° 01:47:53 10° 360° (N) 1,976 6.4 -34.3°
Enters shadow 01:49:25 21° 4° (N) 1,379 5.4 -34.2°
